[[{"header":{"parameterUnit":"m.s-1","parameterCategory":1,"la1":30.2991,"la2":30.254,"lo1":-89.0895,"lo2":-89.0444,"dy":0.0017,"dx":0.0017,"nx":28,"ny":28,"refTime":"2025-07-15T09:00:00:Z","depth":0,"parameterNumber":2,"parameterNumberName":"U-component_of_WINDS"},"data":[0,0,0,0,0,0,0,0,0,0,0,0,0,0,0,0,0,0,0,0,0,0,0,0,0,0,0,0,0,0,0,0,0,0,0,0,0,0,0,0,0,0,0,0,0,0,0,0,0,0,0,0,0,0,0,0,0,0,-2.0111,-2.0112,0,-2.0224,-2.0226,-2.0227,-2.0238,-2.0237,-2.0236,-2.0235,-2.0355,-2.0359,-2.0363,0,0,0,0,0,0,0,0,0,0,0,0,0,-1.9908,-1.9912,-2.0111,-2.0112,-2.0114,-2.0224,-2.0226,-2.0227,-2.0238,-2.0237,-2.0236,-2.0234,-2.0353,-2.0358,-2.0364,0,0,0,0,0,0,0,0,0,0,0,0,0,-2.0007,-1.9913,-2.0111,-2.0133,-2.0136,-2.0224,-2.0226,-2.0228,-2.0239,-2.0237,-2.0235,-2.0234,-2.0352,-2.0358,-2.0364,-2.044,0,0,-2.0384,-2.0387,0,0,0,0,0,0,0,0,-2.0001,-2.0014,-2.0128,-2.0131,-2.0135,-2.0215,-2.0198,-2.0299,-2.0239,-2.02,-2.0235,-2.0233,-2.031,-2.032,-2.0345,-2.0445,-2.045,-2.0385,-2.0388,-2.0391,-2.0393,0,0,0,0,0,0,0,-1.9994,-2.0009,-2.0156,-2.013,-2.0134,-2.0138,-2.015,-2.0217,-2.0264,-2.0203,-2.0204,-2.0217,-2.0312,-2.0339,-2.0348,-2.0452,-2.0384,-2.039,-2.0394,-2.0397,-2.062,-2.0622,0,0,0,0,0,0,-1.9983,-2.0003,-2.0152,-2.0159,-2.0062,-2.0143,-2.0157,-2.0191,-2.0263,-2.0272,-2.0219,-2.0217,-2.0329,-2.034,-2.0352,-2.0445,-2.0391,-2.0397,-2.0401,-2.0618,-2.0621,-2.0623,0,0,0,0,0,0,-1.9978,-1.9996,-2.0148,-2.0082,-2.0101,-2.0148,-2.0188,-2.0195,-2.0222,-2.0275,-2.0283,-2.0238,-2.0328,-2.0343,-2.0418,-2.0449,-2.04,-2.0406,-2.0616,-2.0619,-2.0622,-2.0631,0,0,0,0,0,0,-1.9972,-1.9994,-2.0022,-2.0082,-2.0105,-2.021,-2.0189,-2.0198,-2.0232,-2.0232,-2.0295,-2.0304,-2.0328,-2.0408,-2.0424,-2.0457,-2.0411,-2.0613,-2.0617,-2.0621,-2.0628,-2.0634,-2.0639,0,0,0,0,0,-1.9965,-2.0021,-2.0024,-2.0042,-2.0141,-2.0212,-2.0225,-2.025,-2.0235,-2.0264,-2.0298,-2.0302,-2.0443,-2.0415,-2.0434,-2.0469,-2.0611,-2.0616,-2.0621,-2.0626,-2.0633,-2.0639,0,0,0,0,0,0,-1.9965,-2.003,-2.0033,-2.011,-2.0155,-2.0214,-2.0251,-2.0257,-2.0309,-2.0306,-2.0337,-2.0351,-2.0424,-2.0455,-2.0422,-2.0546,-2.0526,-2.0534,-2.0524,-2.0531,-2.0536,-2.0528,-2.0416,0,0,0,0,0,-1.9974,-2.0025,-2.0079,-2.0142,-2.0164,-2.0204,-2.0236,-2.0251,-2.03,-2.032,-2.0359,-2.0407,-2.0463,-2.0499,-2.0553,-2.0633,-2.0647,-2.0667,-2.0672,-2.0676,-2.0683,-2.0728,-2.0738,-2.0638,-2.0638,-2.0638,0,0,-1.9993,-2.0035,-2.0065,-2.0143,-2.018,-2.0233,-2.022,-2.0277,-2.0317,-2.0329,-2.0401,-2.0432,-2.0488,-2.0565,-2.0601,-2.0593,-2.0714,-2.0682,-2.0685,-2.069,-2.0734,-2.0743,-2.0752,-2.0641,-2.0641,-2.064,0,0,-2.0055,-2.0092,-2.0148,-2.0185,-2.024,-2.0266,-2.028,-2.0337,-2.0358,-2.043,-2.044,-2.0489,-2.0584,-2.0623,-2.0656,-2.0733,-2.0738,-2.075,-2.0778,-2.0822,-2.083,-2.0837,-2.0864,-2.0873,-2.0756,-2.0756,-2.0756,0,-2.0073,-2.0152,-2.0176,-2.0233,-2.0267,-2.0279,-2.0336,-2.0371,-2.0442,-2.0466,-2.0455,-2.0574,-2.0613,-2.07,-2.0718,-2.0744,-2.0761,-2.0742,-2.0826,-2.0834,-2.0841,-2.0867,-2.0877,-2.0757,-2.0757,-2.0757,-2.0757,0,-2.017,-2.0225,-2.0264,-2.033,-2.0369,-2.0426,-2.046,-2.0497,-2.0509,-2.0536,-2.0611,-2.0657,-2.0721,-2.0743,-2.0756,-2.0832,-2.0825,-2.082,-2.08,-2.0851,-2.0876,-2.0886,-2.0759,-2.0759,-2.0758,-2.0758,0,0,-2.0235,-2.0314,-2.0328,-2.0358,-2.042,-2.0464,-2.0522,-2.0582,-2.0613,-2.0662,-2.0712,-2.0792,-2.0787,-2.0824,-2.0842,-2.088,-2.0938,-2.087,-2.0872,-2.0881,-2.1024,-2.1027,-2.1038,-2.0942,-2.0944,-2.0945,-2.1019,0,-2.0304,-2.0405,-2.0429,-2.0517,-2.0568,-2.058,-2.0631,-2.0675,-2.0702,-2.0751,-2.0782,-2.0837,-2.0827,-2.085,-2.0888,-2.0922,-2.0967,-2.0917,-2.0989,-2.0991,-2.0974,-2.1052,-2.1055,-2.1123,-2.1029,-2.1031,-2.1032,0,-2.0398,-2.0447,-2.0539,-2.0594,-2.0616,-2.0661,-2.0718,-2.0764,-2.0815,-2.0833,-2.0873,-2.0887,-2.0949,-2.0926,-2.1012,-2.0978,-2.1009,-2.1031,-2.1034,-2.1041,-2.1014,-2.1061,-2.1145,-2.1155,-2.1048,-2.1047,-2.1046,0,-2.0436,-2.0525,-2.0592,-2.0617,-2.0683,-2.0714,-2.0743,-2.0792,-2.0827,-2.0878,-2.0901,-2.0959,-2.0991,-2.1036,-2.1066,-2.1046,-2.115,-2.1129,-2.1166,-2.1166,-2.1187,-2.1185,-2.1277,-2.1208,-2.1208,-2.1207,-2.1207,0,-2.051,-2.0566,-2.0609,-2.065,-2.0714,-2.0741,-2.0803,-2.0833,-2.0876,-2.0924,-2.0939,-2.0984,-2.102,-2.107,-2.1094,-2.1162,-2.1176,-2.1193,-2.1198,-2.1191,-2.1189,-2.1212,-2.1208,-2.121,-2.1209,-2.1209,-2.1208,0,-2.0563,-2.0594,-2.0668,-2.0724,-2.0739,-2.0783,-2.0832,-2.0873,-2.09,-2.096,-2.0976,-2.102,-2.108,-2.1114,-2.119,-2.1206,-2.1281,-2.1284,-2.1263,-2.1265,-2.1301,-2.1297,-2.141,-2.1426,-2.1346,-2.1346,-2.1347,0,-2.0608,-2.0651,-2.0711,-2.0743,-2.0773,-2.0825,-2.086,-2.0889,-2.0925,-2.0986,-2.102,-2.108,-2.113,-2.1225,-2.1265,-2.1323,-2.1328,-2.1363,-2.1337,-2.1328,-2.1328,-2.1325,-2.133,-2.1368,-2.1369,-2.1369,-2.137,0,-2.0685,-2.0698,-2.0748,-2.0802,-2.0844,-2.0889,-2.0934,-2.096,-2.0996,-2.1037,-2.1097,-2.1136,-2.1212,-2.1272,-2.1333,-2.1365,-2.1374,-2.1378,-2.1389,-2.1382,-2.1368,-2.1376,-2.1275,-2.1375,-2.1374,-2.1374,-2.1374,-2.1374,-2.0736,-2.0774,-2.0822,-2.0877,-2.0913,-2.0955,-2.0995,-2.1027,-2.1078,-2.1141,-2.1156,-2.1219,-2.127,-2.1352,-2.1386,-2.1437,-2.1431,-2.1447,-2.1452,-2.1455,-2.1456,-2.136,-2.1448,-2.1448,-2.1448,-2.1448,-2.1448,0,-2.0813,-2.0844,-2.0894,-2.0955,-2.0998,-2.1001,-2.1051,-2.1087,-2.1143,-2.1188,-2.1236,-2.1306,-2.1364,-2.1407,-2.1467,-2.15,-2.1505,-2.1515,-2.1512,-2.152,-2.1459,-2.1442,-2.1509,-2.1509,-2.1509,-2.1509,-2.1509,-2.1509,-2.0859,-2.0924,-2.0942,-2.1026,-2.1057,-2.1118,-2.1147,-2.1185,-2.1221,-2.1298,-2.1345,-2.1373,-2.1418,-2.1481,-2.1535,-2.1546,-2.1568,-2.1576,-2.1588,-2.153,-2.1524,-2.1518,-2.1502,-2.158,-2.1581,-2.1645,-2.1645,-2.1646]},{"header":{"parameterUnit":"m.s-1","parameterCategory":1,"la1":30.2991,"la2":30.254,"lo1":-89.0895,"lo2":-89.0444,"dy":0.0017,"dx":0.0017,"nx":28,"ny":28,"refTime":"2025-07-15T09:00:00:Z","depth":0,"parameterNumber":3,"parameterNumberName":"V-component_of_WINDS"},"data":[0,0,0,0,0,0,0,0,0,0,0,0,0,0,0,0,0,0,0,0,0,0,0,0,0,0,0,0,0,0,0,0,0,0,0,0,0,0,0,0,0,0,0,0,0,0,0,0,0,0,0,0,0,0,0,0,0,0,3.115,3.115,0,3.1174,3.1174,3.1175,3.1165,3.1164,3.1164,3.1163,3.1186,3.1187,3.1188,0,0,0,0,0,0,0,0,0,0,0,0,0,3.1093,3.1094,3.115,3.115,3.1151,3.1174,3.1174,3.1175,3.1165,3.1164,3.1164,3.1163,3.1185,3.1187,3.1188,0,0,0,0,0,0,0,0,0,0,0,0,0,3.1117,3.1095,3.115,3.1149,3.1149,3.1174,3.1174,3.1175,3.1165,3.1164,3.1163,3.1163,3.1185,3.1187,3.1188,3.1215,0,0,3.1193,3.1194,0,0,0,0,0,0,0,0,3.1116,3.112,3.1149,3.1149,3.1149,3.1166,3.1163,3.1188,3.1165,3.1159,3.1163,3.1162,3.118,3.1182,3.1188,3.1217,3.1218,3.1194,3.1195,3.1195,3.1196,0,0,0,0,0,0,0,3.1114,3.1118,3.1159,3.1149,3.1149,3.1146,3.1149,3.1167,3.1174,3.1159,3.1159,3.1162,3.118,3.1186,3.1188,3.1218,3.1194,3.1195,3.1196,3.1197,3.1269,3.1269,0,0,0,0,0,0,3.1113,3.1117,3.1159,3.116,3.113,3.1148,3.1151,3.1161,3.1173,3.1174,3.1163,3.1161,3.1184,3.1186,3.1189,3.1221,3.1195,3.1197,3.1198,3.1268,3.1269,3.127,0,0,0,0,0,0,3.1112,3.1117,3.1158,3.1139,3.1143,3.115,3.1162,3.1162,3.1169,3.1176,3.1177,3.1168,3.1183,3.1187,3.1209,3.1221,3.1198,3.1199,3.1267,3.1268,3.1269,3.1284,0,0,0,0,0,0,3.111,3.1116,3.1127,3.1139,3.1145,3.1178,3.1162,3.1163,3.1172,3.1171,3.1182,3.1183,3.1183,3.1206,3.1211,3.1223,3.12,3.1265,3.1267,3.1269,3.1283,3.1286,3.1289,0,0,0,0,0,3.1108,3.1131,3.1128,3.1133,3.1159,3.1178,3.1182,3.1182,3.1173,3.1184,3.1188,3.1182,3.122,3.1209,3.1213,3.1227,3.1265,3.1267,3.1269,3.1281,3.1285,3.1289,0,0,0,0,0,0,3.112,3.1132,3.1129,3.1156,3.1166,3.1177,3.119,3.1187,3.1199,3.1197,3.1197,3.1199,3.1222,3.1227,3.1214,3.1253,3.1241,3.1244,3.1249,3.1253,3.1256,3.1253,3.1202,0,0,0,0,0,3.1126,3.1141,3.1151,3.1174,3.1179,3.1184,3.1193,3.1192,3.1202,3.1206,3.1212,3.1222,3.1236,3.1245,3.1258,3.1284,3.1285,3.1295,3.1299,3.1301,3.1303,3.1316,3.132,3.1276,3.1276,3.1276,0,0,3.1137,3.1146,3.1156,3.1176,3.1184,3.1199,3.1187,3.1205,3.1216,3.1209,3.123,3.1235,3.1245,3.1269,3.128,3.1274,3.1316,3.1304,3.1306,3.1306,3.1318,3.1322,3.1326,3.1278,3.1278,3.1277,0,0,3.1166,3.1175,3.1194,3.1203,3.1215,3.1218,3.1223,3.1234,3.1237,3.1258,3.1253,3.1266,3.129,3.1297,3.1304,3.1336,3.1331,3.1341,3.1356,3.1368,3.1372,3.1375,3.1384,3.1388,3.1343,3.1343,3.1343,0,3.1179,3.1203,3.1204,3.1222,3.123,3.1226,3.1244,3.1252,3.1268,3.1273,3.1267,3.1297,3.1304,3.1328,3.1336,3.1343,3.1347,3.1338,3.1371,3.1374,3.1377,3.1386,3.139,3.1344,3.1344,3.1344,3.1344,0,3.1217,3.1233,3.1247,3.1263,3.1273,3.1291,3.1295,3.1305,3.1304,3.1307,3.1328,3.1337,3.1351,3.1357,3.1356,3.1382,3.1377,3.1371,3.1358,3.1382,3.1391,3.1394,3.1345,3.1345,3.1345,3.1344,0,0,3.1252,3.1269,3.1274,3.1281,3.1294,3.1306,3.1324,3.1338,3.1346,3.1358,3.1371,3.1392,3.1386,3.1394,3.1394,3.1405,3.1428,3.1397,3.1397,3.1401,3.1455,3.1458,3.1462,3.1425,3.1426,3.1426,3.1453,0,3.1281,3.1312,3.1314,3.1342,3.1356,3.1352,3.1367,3.1377,3.1381,3.1393,3.1397,3.1411,3.1403,3.1407,3.1419,3.1423,3.1438,3.1421,3.1436,3.1437,3.1432,3.1467,3.1471,3.1495,3.1457,3.1457,3.1458,0,3.1318,3.1331,3.136,3.1371,3.1377,3.139,3.1403,3.1416,3.1426,3.1428,3.1437,3.1435,3.1452,3.144,3.1463,3.1451,3.1457,3.146,3.1461,3.1461,3.1447,3.1466,3.1504,3.1507,3.1463,3.1463,3.1463,0,3.1339,3.1364,3.1384,3.139,3.1403,3.1412,3.1418,3.1428,3.1436,3.1448,3.1453,3.1466,3.1473,3.1483,3.1484,3.1476,3.1506,3.1495,3.1507,3.1507,3.1512,3.1512,3.155,3.152,3.152,3.152,3.152,0,3.137,3.1387,3.1393,3.1405,3.1425,3.1427,3.1446,3.1451,3.1459,3.1472,3.147,3.1481,3.1484,3.1496,3.1497,3.1515,3.1518,3.1519,3.1519,3.1519,3.1518,3.1521,3.1519,3.1521,3.152,3.152,3.152,0,3.1396,3.1401,3.1422,3.1433,3.1436,3.145,3.1459,3.147,3.1474,3.149,3.1493,3.1499,3.1513,3.1516,3.1533,3.1534,3.1554,3.1553,3.1551,3.155,3.1561,3.156,3.1601,3.1606,3.1575,3.1575,3.1575,0,3.1414,3.1427,3.144,3.1448,3.1455,3.1468,3.1477,3.148,3.1489,3.1501,3.1511,3.1525,3.1535,3.1558,3.1563,3.1575,3.1574,3.1588,3.1575,3.1574,3.1572,3.157,3.1571,3.1589,3.1589,3.159,3.159,0,3.1445,3.1447,3.146,3.1473,3.1484,3.1494,3.1505,3.1512,3.1515,3.1525,3.154,3.1549,3.1566,3.1579,3.1591,3.1596,3.1593,3.1594,3.1597,3.1596,3.1593,3.1593,3.1555,3.1593,3.1592,3.1592,3.1592,3.1592,3.1467,3.1478,3.1488,3.1502,3.1511,3.152,3.1531,3.1536,3.1549,3.1563,3.1564,3.1579,3.1588,3.1605,3.1611,3.1623,3.1618,3.1623,3.1624,3.1625,3.1625,3.1593,3.1625,3.1625,3.1625,3.1625,3.1625,0,3.1497,3.1503,3.1516,3.1531,3.1541,3.1539,3.155,3.1559,3.1572,3.1582,3.1593,3.1609,3.1622,3.1628,3.1641,3.1649,3.1648,3.1652,3.165,3.1651,3.1629,3.1624,3.1652,3.1652,3.1652,3.1652,3.1652,3.1652,3.1513,3.1532,3.1535,3.1557,3.1563,3.1579,3.1585,3.1593,3.1601,3.1619,3.163,3.1634,3.1642,3.1655,3.1667,3.1668,3.1672,3.1677,3.1677,3.1656,3.1653,3.165,3.1646,3.1678,3.1678,3.1698,3.1699,3.1699]}]]